TimeEEST,TemperatureF,Dew PointF,Humidity,Sea Level PressureIn,VisibilityMPH,Wind Direction,Wind SpeedMPH,Gust SpeedMPH,PrecipitationIn,Events,Conditions,WindDirDegrees,DateUTC
12:09 AM,44.6,33.8,66,30.39,6.2,NNW,17.3,-,N/A,,Mostly Cloudy,330,2013-10-04 21:09:00
12:20 AM,44.6,35.6,71,30.39,6.2,NW,17.3,-,N/A,,Mostly Cloudy,320,2013-10-04 21:20:00
12:50 AM,46.4,35.6,66,30.36,6.2,NNW,21.9,-,N/A,,Mostly Cloudy,330,2013-10-04 21:50:00
1:20 AM,44.6,35.6,71,30.39,6.2,NW,17.3,-,N/A,,Mostly Cloudy,320,2013-10-04 22:20:00
1:50 AM,46.4,35.6,66,30.36,6.2,NW,17.3,-,N/A,,Mostly Cloudy,320,2013-10-04 22:50:00
2:20 AM,44.6,32.0,61,30.36,6.2,NW,18.4,-,N/A,,Mostly Cloudy,310,2013-10-04 23:20:00
2:50 AM,46.4,33.8,62,30.39,6.2,NW,8.1,-,N/A,,Mostly Cloudy,320,2013-10-04 23:50:00
3:00 AM,46,33,49,30.40,6,NW,8.1,,,,Partly Cloudy,320,2013-10-05 00:00:00
3:20 AM,46.4,32.0,57,30.36,6.2,NW,6.9,-,N/A,,Mostly Cloudy,320,2013-10-05 00:20:00
3:50 AM,46.4,32.0,57,30.36,6.2,NW,8.1,-,N/A,,Mostly Cloudy,310,2013-10-05 00:50:00
4:20 AM,46.4,32.0,57,30.36,6.2,NW,9.2,-,N/A,,Mostly Cloudy,310,2013-10-05 01:20:00
4:50 AM,46.4,32.0,57,30.36,6.2,NW,6.9,-,N/A,,Mostly Cloudy,310,2013-10-05 01:50:00
5:20 AM,48.2,30.2,50,30.36,6.2,NNW,12.7,-,N/A,,Mostly Cloudy,340,2013-10-05 02:20:00
5:50 AM,48.2,30.2,50,30.36,6.2,NNW,13.8,-,N/A,,Mostly Cloudy,340,2013-10-05 02:50:00
6:20 AM,48.2,30.2,50,30.36,6.2,NNW,10.4,-,N/A,,Mostly Cloudy,340,2013-10-05 03:20:00
6:50 AM,46.4,32.0,57,30.36,6.2,NW,8.1,-,N/A,,Mostly Cloudy,310,2013-10-05 03:50:00
7:20 AM,46.4,32.0,57,30.36,6.2,WNW,11.5,-,N/A,,Mostly Cloudy,300,2013-10-05 04:20:00
7:50 AM,46.4,32.0,57,30.36,6.2,WNW,12.7,-,N/A,,Mostly Cloudy,300,2013-10-05 04:50:00
8:20 AM,46.4,33.8,62,30.36,6.2,WNW,11.5,-,N/A,,Mostly Cloudy,300,2013-10-05 05:20:00
8:39 AM,46.4,33.8,62,30.36,5.0,NW,13.8,-,N/A,Rain,Light Rain Showers,310,2013-10-05 05:39:00
8:50 AM,44.6,33.8,66,30.36,5.0,NW,12.7,-,N/A,Rain,Light Rain Showers,310,2013-10-05 05:50:00
9:00 AM,45,35,56,30.39,5,NW,12.7,,,Rain,Light Rain Showers,310,2013-10-05 06:00:00
9:09 AM,44.6,35.6,71,30.36,6.2,WNW,11.5,-,N/A,,Mostly Cloudy,300,2013-10-05 06:09:00
9:20 AM,46.4,35.6,66,30.36,6.2,WNW,12.7,-,N/A,,Mostly Cloudy,300,2013-10-05 06:20:00
9:50 AM,46.4,33.8,62,30.36,6.2,NW,11.5,-,N/A,Rain,Light Rain Showers,310,2013-10-05 06:50:00
10:20 AM,46.4,35.6,66,30.36,6.2,WNW,10.4,-,N/A,,Mostly Cloudy,300,2013-10-05 07:20:00
10:50 AM,50.0,35.6,58,30.36,6.2,NW,17.3,-,N/A,,Mostly Cloudy,310,2013-10-05 07:50:00
11:20 AM,51.8,35.6,54,30.36,6.2,NW,13.8,-,N/A,,Mostly Cloudy,310,2013-10-05 08:20:00
11:50 AM,53.6,35.6,51,30.36,6.2,NW,16.1,-,N/A,,Mostly Cloudy,320,2013-10-05 08:50:00
12:20 PM,53.6,35.6,51,30.36,6.2,NNW,13.8,-,N/A,,Mostly Cloudy,330,2013-10-05 09:20:00
12:50 PM,53.6,35.6,51,30.36,6.2,WNW,11.5,-,N/A,,Mostly Cloudy,300,2013-10-05 09:50:00
1:20 PM,53.6,35.6,51,30.36,6.2,NW,12.7,-,N/A,,Mostly Cloudy,310,2013-10-05 10:20:00
1:50 PM,55.4,35.6,47,30.33,6.2,NW,15.0,-,N/A,,Mostly Cloudy,310,2013-10-05 10:50:00
2:20 PM,55.4,33.8,44,30.33,6.2,North,15.0,-,N/A,,Mostly Cloudy,350,2013-10-05 11:20:00
2:50 PM,53.6,33.8,47,30.33,6.2,NNW,15.0,-,N/A,,Mostly Cloudy,340,2013-10-05 11:50:00
3:00 PM,54,34,34,30.35,12,NNW,15.0,,,,Partly Cloudy,340,2013-10-05 12:00:00
3:20 PM,55.4,33.8,44,30.33,6.2,Variable,12.7,26.5,N/A,,Mostly Cloudy,0,2013-10-05 12:20:00
3:50 PM,57.2,33.8,41,30.33,6.2,North,13.8,25.3,N/A,,Mostly Cloudy,360,2013-10-05 12:50:00
4:20 PM,55.4,33.8,44,30.33,6.2,North,15.0,-,N/A,,Mostly Cloudy,350,2013-10-05 13:20:00
4:50 PM,55.4,33.8,44,30.33,6.2,North,12.7,-,N/A,,Mostly Cloudy,360,2013-10-05 13:50:00
5:20 PM,53.6,33.8,47,30.33,6.2,North,15.0,-,N/A,,Mostly Cloudy,10,2013-10-05 14:20:00
5:50 PM,51.8,35.6,54,30.33,6.2,North,12.7,-,N/A,,Mostly Cloudy,360,2013-10-05 14:50:00
6:20 PM,51.8,33.8,50,30.33,6.2,North,15.0,-,N/A,,Mostly Cloudy,350,2013-10-05 15:20:00
6:50 PM,51.8,33.8,50,30.33,6.2,North,15.0,-,N/A,,Mostly Cloudy,350,2013-10-05 15:50:00
7:20 PM,51.8,33.8,50,30.33,6.2,NNW,12.7,-,N/A,,Mostly Cloudy,340,2013-10-05 16:20:00
7:50 PM,51.8,32.0,47,30.36,6.2,NNW,15.0,-,N/A,,Mostly Cloudy,340,2013-10-05 16:50:00
8:20 PM,50.0,32.0,50,30.36,6.2,North,12.7,-,N/A,,Mostly Cloudy,350,2013-10-05 17:20:00
8:50 PM,50.0,32.0,50,30.36,6.2,North,12.7,-,N/A,,Scattered Clouds,350,2013-10-05 17:50:00
9:00 PM,51,30,33,30.37,6,North,12.7,,,,Partly Cloudy,350,2013-10-05 18:00:00
9:20 PM,50.0,32.0,50,30.36,6.2,NNW,9.2,-,N/A,,Scattered Clouds,340,2013-10-05 18:20:00
9:50 PM,48.2,32.0,54,30.36,6.2,NNW,9.2,-,N/A,,Scattered Clouds,340,2013-10-05 18:50:00
10:20 PM,48.2,32.0,54,30.36,6.2,NNW,8.1,-,N/A,,Scattered Clouds,340,2013-10-05 19:20:00
10:50 PM,46.4,32.0,57,30.33,6.2,NNW,8.1,-,N/A,,Scattered Clouds,330,2013-10-05 19:50:00
11:20 PM,46.4,33.8,62,30.33,6.2,NNW,8.1,-,N/A,,Scattered Clouds,340,2013-10-05 20:20:00
11:50 PM,44.6,33.8,66,30.33,6.2,NNW,8.1,-,N/A,,Scattered Clouds,340,2013-10-05 20:50:00